Time,TemperatureF,DewpointF,PressureIn,WindDirection,WindDirectionDegrees,WindSpeedMPH,WindSpeedGustMPH,Humidity,HourlyPrecipIn,Conditions,Clouds,dailyrainin,SoftwareType,DateUTC
2013-03-05 00:00:00,35.4,9.2,29.18,West,276,4.0,4.0,33,0.00,,BKN,0.00,VWS V13.01,2013-03-05 05:00:00,
2013-03-05 00:05:00,35.4,9.2,29.18,West,276,4.0,4.0,33,0.00,,BKN,0.00,VWS V13.01,2013-03-05 05:05:00,
2013-03-05 00:10:00,35.4,9.2,29.18,West,276,4.0,4.0,33,0.00,,BKN,0.00,VWS V13.01,2013-03-05 05:10:00,
2013-03-05 00:15:00,35.1,8.9,29.18,West,276,4.0,4.0,33,0.00,,BKN,0.00,VWS V13.01,2013-03-05 05:15:00,
2013-03-05 00:20:00,34.5,9.1,29.18,West,276,4.0,4.0,34,0.00,,BKN,0.00,VWS V13.01,2013-03-05 05:20:00,
2013-03-05 00:25:00,34.0,8.6,29.18,West,276,4.0,4.0,34,0.00,,BKN,0.00,VWS V13.01,2013-03-05 05:25:00,
2013-03-05 00:30:00,33.3,7.9,29.18,West,276,4.0,4.0,34,0.00,,BKN,0.00,VWS V13.01,2013-03-05 05:30:00,
2013-03-05 00:35:00,32.7,8.1,29.18,West,276,4.0,4.0,35,0.00,,BKN,0.00,VWS V13.01,2013-03-05 05:35:00,
2013-03-05 00:40:00,32.5,7.9,29.18,West,276,4.0,4.0,35,0.00,,BKN,0.00,VWS V13.01,2013-03-05 05:40:00,
2013-03-05 00:45:00,32.5,8.6,29.18,West,276,4.0,4.0,36,0.00,,BKN,0.00,VWS V13.01,2013-03-05 05:45:00,
2013-03-05 00:50:00,32.4,8.4,29.18,West,276,4.0,4.0,36,0.00,,BKN,0.00,VWS V13.01,2013-03-05 05:50:00,
2013-03-05 00:55:00,32.2,8.2,29.18,West,276,4.0,4.0,36,0.00,,BKN,0.00,VWS V13.01,2013-03-05 05:55:00,
2013-03-05 01:00:00,32.0,8.1,29.18,West,276,4.0,4.0,36,0.00,,BKN,0.00,VWS V13.01,2013-03-05 06:00:00,
2013-03-05 01:05:00,31.8,7.9,29.18,West,276,4.0,4.0,36,0.00,,BKN,0.00,VWS V13.01,2013-03-05 06:05:00,
2013-03-05 01:10:00,31.5,8.2,29.18,West,276,4.0,4.0,37,0.00,,BKN,0.00,VWS V13.01,2013-03-05 06:10:00,
2013-03-05 01:15:00,31.3,8.6,29.18,West,276,4.0,4.0,38,0.00,,BKN,0.00,VWS V13.01,2013-03-05 06:15:00,
2013-03-05 01:20:00,31.6,9.0,29.18,West,276,4.0,4.0,38,0.00,,BKN,0.00,VWS V13.01,2013-03-05 06:20:00,
2013-03-05 01:25:00,32.2,8.9,29.18,West,276,4.0,4.0,37,0.00,,BKN,0.00,VWS V13.01,2013-03-05 06:25:00,
2013-03-05 01:30:00,32.5,9.2,29.18,West,276,4.0,4.0,37,0.00,,BKN,0.00,VWS V13.01,2013-03-05 06:30:00,
2013-03-05 01:35:00,32.7,9.3,29.18,West,276,4.0,4.0,37,0.00,,BKN,0.00,VWS V13.01,2013-03-05 06:35:00,
2013-03-05 01:40:00,32.7,9.3,29.18,West,276,4.0,4.0,37,0.00,,BKN,0.00,VWS V13.01,2013-03-05 06:40:00,
2013-03-05 01:45:00,32.7,8.7,29.18,West,276,4.0,4.0,36,0.00,,BKN,0.00,VWS V13.01,2013-03-05 06:45:00,
2013-03-05 01:50:00,33.8,9.7,29.18,West,276,4.0,4.0,36,0.00,,BKN,0.00,VWS V13.01,2013-03-05 06:50:00,
2013-03-05 01:55:00,33.8,9.1,29.18,West,276,4.0,4.0,35,0.00,,BKN,0.00,VWS V13.01,2013-03-05 06:55:00,
2013-03-05 02:00:00,33.8,9.1,29.18,West,276,4.0,4.0,35,0.00,,BKN,0.00,VWS V13.01,2013-03-05 07:00:00,
2013-03-05 02:05:00,33.8,9.1,29.18,West,276,4.0,4.0,35,0.00,,BKN,0.00,VWS V13.01,2013-03-05 07:05:00,
2013-03-05 02:10:00,33.8,8.4,29.18,West,276,4.0,4.0,34,0.00,,BKN,0.00,VWS V13.01,2013-03-05 07:10:00,
2013-03-05 02:15:00,33.8,8.4,29.18,West,276,4.0,4.0,34,0.00,,BKN,0.00,VWS V13.01,2013-03-05 07:15:00,
2013-03-05 02:20:00,33.8,8.4,29.18,West,276,4.0,4.0,34,0.00,,BKN,0.00,VWS V13.01,2013-03-05 07:20:00,
2013-03-05 02:25:00,33.8,8.4,29.18,West,276,4.0,4.0,34,0.00,,BKN,0.00,VWS V13.01,2013-03-05 07:25:00,
2013-03-05 02:30:00,33.8,8.4,29.18,West,276,4.0,4.0,34,0.00,,BKN,0.00,VWS V13.01,2013-03-05 07:30:00,
2013-03-05 02:35:00,33.8,8.4,29.18,West,276,4.0,4.0,34,0.00,,BKN,0.00,VWS V13.01,2013-03-05 07:35:00,
2013-03-05 02:40:00,35.4,9.9,29.18,West,276,4.0,4.0,34,0.00,,BKN,0.00,VWS V13.01,2013-03-05 07:40:00,
2013-03-05 02:45:00,35.4,9.9,29.18,West,276,4.0,4.0,34,0.00,,BKN,0.00,VWS V13.01,2013-03-05 07:45:00,
2013-03-05 02:50:00,35.4,9.9,29.18,West,276,4.0,4.0,34,0.00,,BKN,0.00,VWS V13.01,2013-03-05 07:50:00,
2013-03-05 02:55:00,35.4,9.9,29.18,West,276,4.0,4.0,34,0.00,,BKN,0.00,VWS V13.01,2013-03-05 07:55:00,
2013-03-05 03:00:00,35.4,9.9,29.18,West,276,4.0,4.0,34,0.00,,BKN,0.00,VWS V13.01,2013-03-05 08:00:00,
2013-03-05 03:05:00,35.4,9.9,29.18,West,276,4.0,4.0,34,0.00,,BKN,0.00,VWS V13.01,2013-03-05 08:05:00,
2013-03-05 03:10:00,35.4,9.9,29.18,West,276,4.0,4.0,34,0.00,,BKN,0.00,VWS V13.01,2013-03-05 08:10:00,
2013-03-05 03:15:00,35.4,9.9,29.18,West,276,4.0,4.0,34,0.00,,BKN,0.00,VWS V13.01,2013-03-05 08:15:00,
2013-03-05 03:20:00,34.2,9.4,29.18,West,276,4.0,4.0,35,0.00,,BKN,0.00,VWS V13.01,2013-03-05 08:20:00,
2013-03-05 03:25:00,34.2,9.4,29.18,West,276,4.0,4.0,35,0.00,,BKN,0.00,VWS V13.01,2013-03-05 08:25:00,
2013-03-05 03:29:00,34.2,9.4,29.18,West,276,4.0,4.0,35,0.00,,BKN,0.00,VWS V13.01,2013-03-05 08:29:00,
2013-03-05 03:34:00,33.6,8.9,29.18,West,276,4.0,4.0,35,0.00,,BKN,0.00,VWS V13.01,2013-03-05 08:34:00,
2013-03-05 03:39:00,33.4,8.7,29.18,West,276,4.0,4.0,35,0.00,,BKN,0.00,VWS V13.01,2013-03-05 08:39:00,
2013-03-05 03:45:00,33.4,8.7,29.18,West,276,4.0,4.0,35,0.00,,BKN,0.00,VWS V13.01,2013-03-05 08:45:00,
2013-03-05 03:50:00,33.4,8.7,29.18,West,276,4.0,4.0,35,0.00,,BKN,0.00,VWS V13.01,2013-03-05 08:50:00,
2013-03-05 03:54:00,33.3,8.6,29.18,West,267,0.0,0.0,35,0.00,,BKN,0.00,VWS V13.01,2013-03-05 08:54:00,
2013-03-05 03:59:00,33.3,8.6,29.18,West,267,0.0,0.0,35,0.00,,BKN,0.00,VWS V13.01,2013-03-05 08:59:00,
2013-03-05 04:04:00,33.3,9.2,29.18,West,267,0.0,0.0,36,0.00,,BKN,0.00,VWS V13.01,2013-03-05 09:04:00,
2013-03-05 04:09:00,33.3,9.2,29.18,West,267,0.0,0.0,36,0.00,,BKN,0.00,VWS V13.01,2013-03-05 09:09:00,
2013-03-05 04:14:00,33.3,9.2,29.18,West,267,0.0,0.0,36,0.00,,BKN,0.00,VWS V13.01,2013-03-05 09:14:00,
2013-03-05 04:19:00,33.3,9.8,29.18,West,267,0.0,0.0,37,0.00,,BKN,0.00,VWS V13.01,2013-03-05 09:19:00,
2013-03-05 04:24:00,33.3,10.4,29.18,West,267,0.0,0.0,38,0.00,,BKN,0.00,VWS V13.01,2013-03-05 09:24:00,
2013-03-05 04:29:00,33.3,10.4,29.18,West,267,0.0,0.0,38,0.00,,BKN,0.00,VWS V13.01,2013-03-05 09:29:00,
2013-03-05 04:34:00,33.3,10.4,29.18,West,267,0.0,0.0,38,0.00,,BKN,0.00,VWS V13.01,2013-03-05 09:34:00,
2013-03-05 04:39:00,33.3,11.0,29.18,West,267,0.0,0.0,39,0.00,,BKN,0.00,VWS V13.01,2013-03-05 09:39:00,
2013-03-05 04:44:00,33.3,11.0,29.18,West,267,0.0,0.0,39,0.00,,BKN,0.00,VWS V13.01,2013-03-05 09:44:00,
2013-03-05 04:49:00,33.3,10.4,29.18,West,267,0.0,0.0,38,0.00,,BKN,0.00,VWS V13.01,2013-03-05 09:49:00,
2013-03-05 04:54:00,33.3,10.4,29.18,West,267,0.0,0.0,38,0.00,,BKN,0.00,VWS V13.01,2013-03-05 09:54:00,
2013-03-05 04:59:00,33.3,9.8,29.18,West,267,0.0,0.0,37,0.00,,BKN,0.00,VWS V13.01,2013-03-05 09:59:00,
2013-03-05 05:04:00,33.3,9.8,29.18,West,267,0.0,0.0,37,0.00,,BKN,0.00,VWS V13.01,2013-03-05 10:04:00,
2013-03-05 05:09:00,33.3,9.8,29.18,West,267,0.0,0.0,37,0.00,,BKN,0.00,VWS V13.01,2013-03-05 10:09:00,
2013-03-05 05:14:00,33.3,9.8,29.18,West,267,0.0,0.0,37,0.00,,BKN,0.00,VWS V13.01,2013-03-05 10:14:00,
2013-03-05 05:19:00,33.3,9.8,29.18,West,267,0.0,0.0,37,0.00,,BKN,0.00,VWS V13.01,2013-03-05 10:19:00,
2013-03-05 05:24:00,33.3,9.8,29.18,West,267,0.0,0.0,37,0.00,,BKN,0.00,VWS V13.01,2013-03-05 10:24:00,
2013-03-05 05:29:00,33.3,9.8,29.18,West,267,0.0,0.0,37,0.00,,BKN,0.00,VWS V13.01,2013-03-05 10:29:00,
2013-03-05 05:34:00,33.3,9.8,29.18,West,267,0.0,0.0,37,0.00,,BKN,0.00,VWS V13.01,2013-03-05 10:34:00,
2013-03-05 05:39:00,33.3,9.8,29.18,West,267,0.0,0.0,37,0.00,,BKN,0.00,VWS V13.01,2013-03-05 10:39:00,
2013-03-05 05:44:00,33.8,10.3,29.18,West,267,0.0,0.0,37,0.00,,BKN,0.00,VWS V13.01,2013-03-05 10:44:00,
2013-03-05 05:49:00,33.8,10.3,29.18,West,267,0.0,0.0,37,0.00,,BKN,0.00,VWS V13.01,2013-03-05 10:49:00,
2013-03-05 05:54:00,33.8,10.3,29.18,West,267,0.0,0.0,37,0.00,,BKN,0.00,VWS V13.01,2013-03-05 10:54:00,
2013-03-05 05:59:00,33.6,10.1,29.18,West,267,0.0,0.0,37,0.00,,BKN,0.00,VWS V13.01,2013-03-05 10:59:00,
2013-03-05 06:04:00,33.6,10.1,29.18,West,267,0.0,0.0,37,0.00,,BKN,0.00,VWS V13.01,2013-03-05 11:04:00,
2013-03-05 06:09:00,33.3,10.4,29.18,West,267,0.0,0.0,38,0.00,,BKN,0.00,VWS V13.01,2013-03-05 11:09:00,
2013-03-05 06:14:00,33.3,10.4,29.18,West,267,0.0,0.0,38,0.00,,BKN,0.00,VWS V13.01,2013-03-05 11:14:00,
2013-03-05 06:19:00,32.9,10.7,29.18,West,267,0.0,0.0,39,0.00,,BKN,0.00,VWS V13.01,2013-03-05 11:19:00,
2013-03-05 06:24:00,32.9,10.7,29.18,West,267,0.0,0.0,39,0.00,,BKN,0.00,VWS V13.01,2013-03-05 11:24:00,
2013-03-05 06:29:00,32.9,11.2,29.18,West,267,0.0,0.0,40,0.00,,BKN,0.00,VWS V13.01,2013-03-05 11:29:00,
2013-03-05 06:34:00,32.9,11.2,29.18,West,267,0.0,0.0,40,0.00,,BKN,0.00,VWS V13.01,2013-03-05 11:34:00,
2013-03-05 06:39:00,32.9,11.2,29.18,West,267,0.0,0.0,40,0.00,,BKN,0.00,VWS V13.01,2013-03-05 11:39:00,
2013-03-05 06:44:00,32.9,11.2,29.18,West,267,0.0,0.0,40,0.00,,BKN,0.00,VWS V13.01,2013-03-05 11:44:00,
2013-03-05 06:49:00,32.9,11.2,29.18,West,267,0.0,0.0,40,0.00,,BKN,0.00,VWS V13.01,2013-03-05 11:49:00,
2013-03-05 06:54:00,32.9,11.2,29.18,West,267,0.0,0.0,40,0.00,,BKN,0.00,VWS V13.01,2013-03-05 11:54:00,
2013-03-05 06:59:00,32.9,11.2,29.18,West,267,0.0,0.0,40,0.00,,BKN,0.00,VWS V13.01,2013-03-05 11:59:00,
2013-03-05 07:04:00,32.9,11.2,29.18,West,267,0.0,0.0,40,0.00,,BKN,0.00,VWS V13.01,2013-03-05 12:04:00,
2013-03-05 07:09:00,32.9,11.2,29.18,West,267,0.0,0.0,40,0.00,,BKN,0.00,VWS V13.01,2013-03-05 12:09:00,
2013-03-05 07:14:00,32.9,11.2,29.18,West,267,0.0,0.0,40,0.00,,BKN,0.00,VWS V13.01,2013-03-05 12:14:00,
2013-03-05 07:19:00,32.9,11.2,29.21,West,267,0.0,0.0,40,0.00,,BKN,0.00,VWS V13.01,2013-03-05 12:19:00,
2013-03-05 07:24:00,32.9,11.2,29.21,West,267,0.0,0.0,40,0.00,,BKN,0.00,VWS V13.01,2013-03-05 12:24:00,
2013-03-05 07:29:00,33.1,11.4,29.21,West,267,0.0,0.0,40,0.00,,BKN,0.00,VWS V13.01,2013-03-05 12:29:00,
2013-03-05 07:34:00,33.1,11.4,29.21,West,267,0.0,0.0,40,0.00,,BKN,0.00,VWS V13.01,2013-03-05 12:34:00,
2013-03-05 07:39:00,33.1,11.4,29.21,West,267,0.0,0.0,40,0.00,,BKN,0.00,VWS V13.01,2013-03-05 12:39:00,
2013-03-05 07:44:00,33.1,11.4,29.21,West,267,0.0,0.0,40,0.00,,BKN,0.00,VWS V13.01,2013-03-05 12:44:00,
2013-03-05 07:49:00,33.6,11.9,29.21,West,267,0.0,0.0,40,0.00,,BKN,0.00,VWS V13.01,2013-03-05 12:49:00,
2013-03-05 07:54:00,33.6,11.9,29.21,West,267,0.0,0.0,40,0.00,,BKN,0.00,VWS V13.01,2013-03-05 12:54:00,
2013-03-05 07:59:00,33.8,12.1,29.21,West,267,0.0,0.0,40,0.00,,BKN,0.00,VWS V13.01,2013-03-05 12:59:00,
2013-03-05 08:04:00,34.0,12.2,29.21,West,267,0.0,0.0,40,0.00,,BKN,0.00,VWS V13.01,2013-03-05 13:04:00,
2013-03-05 08:09:00,34.3,12.5,29.21,West,267,0.0,0.0,40,0.00,,BKN,0.00,VWS V13.01,2013-03-05 13:09:00,
2013-03-05 08:14:00,34.5,12.7,29.21,West,267,0.0,0.0,40,0.00,,BKN,0.00,VWS V13.01,2013-03-05 13:14:00,
2013-03-05 08:19:00,34.9,12.4,29.21,West,267,0.0,0.0,39,0.00,,BKN,0.00,VWS V13.01,2013-03-05 13:19:00,
2013-03-05 08:24:00,35.1,12.6,29.21,West,267,0.0,0.0,39,0.00,,BKN,0.00,VWS V13.01,2013-03-05 13:24:00,
2013-03-05 08:29:00,35.4,12.9,29.21,West,267,0.0,0.0,39,0.00,,BKN,0.00,VWS V13.01,2013-03-05 13:29:00,
2013-03-05 08:34:00,36.0,12.8,29.18,West,267,0.0,0.0,38,0.00,,BKN,0.00,VWS V13.01,2013-03-05 13:34:00,
2013-03-05 08:39:00,36.3,13.2,29.18,West,267,0.0,0.0,38,0.00,,BKN,0.00,VWS V13.01,2013-03-05 13:39:00,
2013-03-05 08:44:00,36.5,13.3,29.18,West,267,0.0,0.0,38,0.00,,BKN,0.00,VWS V13.01,2013-03-05 13:44:00,
2013-03-05 08:49:00,37.0,13.2,29.18,West,267,0.0,0.0,37,0.00,,BKN,0.00,VWS V13.01,2013-03-05 13:49:00,
2013-03-05 08:54:00,37.8,13.8,29.18,West,267,0.0,0.0,37,0.00,,BKN,0.00,VWS V13.01,2013-03-05 13:54:00,
2013-03-05 08:59:00,38.3,13.7,29.18,West,267,0.0,0.0,36,0.00,,BKN,0.00,VWS V13.01,2013-03-05 13:59:00,
2013-03-05 09:04:00,38.7,13.4,29.18,West,267,0.0,0.0,35,0.00,,BKN,0.00,VWS V13.01,2013-03-05 14:04:00,
2013-03-05 09:09:00,39.4,14.0,29.18,West,267,0.0,0.0,35,0.00,,BKN,0.00,VWS V13.01,2013-03-05 14:09:00,
2013-03-05 09:14:00,40.1,14.0,29.18,West,267,0.0,0.0,34,0.00,,BKN,0.00,VWS V13.01,2013-03-05 14:14:00,
2013-03-05 09:19:00,40.5,14.3,29.18,West,267,0.0,0.0,34,0.00,,BKN,0.00,VWS V13.01,2013-03-05 14:19:00,
2013-03-05 09:24:00,40.3,13.5,29.18,West,267,0.0,0.0,33,0.00,,BKN,0.00,VWS V13.01,2013-03-05 14:24:00,
2013-03-05 09:29:00,40.5,13.6,29.18,West,267,0.0,0.0,33,0.00,,BKN,0.00,VWS V13.01,2013-03-05 14:29:00,
2013-03-05 09:34:00,41.2,13.6,29.18,West,267,0.0,0.0,32,0.00,,BKN,0.00,VWS V13.01,2013-03-05 14:34:00,
2013-03-05 09:39:00,41.7,14.1,29.18,West,267,0.0,0.0,32,0.00,,BKN,0.00,VWS V13.01,2013-03-05 14:39:00,
2013-03-05 09:44:00,41.5,13.9,29.18,West,267,0.0,0.0,32,0.00,,BKN,0.00,VWS V13.01,2013-03-05 14:44:00,
2013-03-05 09:49:00,41.4,13.7,29.18,West,267,0.0,0.0,32,0.00,,BKN,0.00,VWS V13.01,2013-03-05 14:49:00,
2013-03-05 09:54:00,41.5,13.9,29.18,West,267,0.0,0.0,32,0.00,,BKN,0.00,VWS V13.01,2013-03-05 14:54:00,
2013-03-05 09:59:00,41.5,13.9,29.18,ENE,62,4.5,4.5,32,0.00,,BKN,0.00,VWS V13.01,2013-03-05 14:59:00,
2013-03-05 10:04:00,41.5,13.9,29.18,NNE,27,4.5,4.5,32,0.00,,BKN,0.00,VWS V13.01,2013-03-05 15:04:00,
2013-03-05 10:09:00,41.4,13.7,29.18,SE,137,2.7,2.7,32,0.00,,BKN,0.00,VWS V13.01,2013-03-05 15:09:00,
2013-03-05 10:14:00,42.1,13.6,29.18,ENE,74,6.7,6.7,31,0.00,,BKN,0.00,VWS V13.01,2013-03-05 15:14:00,
2013-03-05 10:19:00,42.4,14.0,29.15,ENE,67,3.1,5.8,31,0.00,,BKN,0.00,VWS V13.01,2013-03-05 15:19:00,
2013-03-05 10:24:00,42.3,13.8,29.15,NE,52,4.5,4.5,31,0.00,,BKN,0.00,VWS V13.01,2013-03-05 15:24:00,
2013-03-05 10:29:00,42.3,13.8,29.15,ESE,115,6.7,7.4,31,0.00,,BKN,0.00,VWS V13.01,2013-03-05 15:29:00,
2013-03-05 10:34:00,42.3,13.1,29.15,ESE,109,3.6,4.0,30,0.00,,BKN,0.00,VWS V13.01,2013-03-05 15:34:00,
2013-03-05 10:39:00,42.6,13.4,29.15,ENE,76,2.7,2.7,30,0.00,,BKN,0.00,VWS V13.01,2013-03-05 15:39:00,
2013-03-05 10:44:00,43.0,13.7,29.15,NW,306,3.6,3.6,30,0.00,,BKN,0.00,VWS V13.01,2013-03-05 15:44:00,
2013-03-05 10:49:00,43.0,13.7,29.15,ESE,109,0.0,4.0,30,0.00,,BKN,0.00,VWS V13.01,2013-03-05 15:49:00,
2013-03-05 10:54:00,43.0,13.7,29.15,ENE,63,4.0,4.0,30,0.00,,BKN,0.00,VWS V13.01,2013-03-05 15:54:00,
2013-03-05 10:59:00,43.2,13.8,29.15,NW,313,4.0,4.9,30,0.00,,BKN,0.00,VWS V13.01,2013-03-05 15:59:00,
2013-03-05 11:04:00,43.3,14.0,29.15,NNW,327,4.0,4.0,30,0.00,,BKN,0.00,VWS V13.01,2013-03-05 16:04:00,
2013-03-05 11:09:00,43.7,13.5,29.15,NW,314,3.1,4.5,29,0.00,,BKN,0.00,VWS V13.01,2013-03-05 16:09:00,
2013-03-05 11:13:00,44.1,13.9,29.15,NE,44,3.6,4.0,29,0.00,,BKN,0.00,VWS V13.01,2013-03-05 16:13:00,
2013-03-05 11:18:00,44.2,14.0,29.15,East,80,4.0,4.0,29,0.00,,BKN,0.00,VWS V13.01,2013-03-05 16:18:00,
2013-03-05 11:23:00,44.8,14.5,29.15,ENE,58,5.4,5.8,29,0.00,,BKN,0.00,VWS V13.01,2013-03-05 16:23:00,
2013-03-05 11:28:00,44.8,14.5,29.15,ESE,104,0.0,3.6,29,0.00,,BKN,0.00,VWS V13.01,2013-03-05 16:28:00,
2013-03-05 11:33:00,45.0,14.6,29.15,ESE,112,3.1,4.9,29,0.00,,BKN,0.00,VWS V13.01,2013-03-05 16:33:00,
2013-03-05 11:38:00,45.3,14.9,29.15,SSE,157,4.0,4.9,29,0.00,,BKN,0.00,VWS V13.01,2013-03-05 16:38:00,
2013-03-05 11:43:00,45.5,14.3,29.15,SW,225,0.0,2.7,28,0.00,,BKN,0.00,VWS V13.01,2013-03-05 16:43:00,
2013-03-05 11:48:00,45.9,14.6,29.12,NE,43,4.5,6.3,28,0.00,,BKN,0.00,VWS V13.01,2013-03-05 16:48:00,
2013-03-05 11:53:00,45.3,14.9,29.12,NNE,23,0.0,0.0,29,0.00,,BKN,0.00,VWS V13.01,2013-03-05 16:53:00,
2013-03-05 11:58:00,45.5,15.1,29.12,NNW,329,6.3,6.9,29,0.00,,BKN,0.00,VWS V13.01,2013-03-05 16:58:00,
2013-03-05 12:03:00,45.3,14.9,29.12,North,356,5.4,5.4,29,0.00,,BKN,0.00,VWS V13.01,2013-03-05 17:03:00,
2013-03-05 12:08:00,45.7,14.5,29.12,NNE,25,6.9,7.4,28,0.00,,BKN,0.00,VWS V13.01,2013-03-05 17:08:00,
2013-03-05 12:13:00,45.9,14.6,29.12,NNE,24,3.6,4.9,28,0.00,,BKN,0.00,VWS V13.01,2013-03-05 17:13:00,
2013-03-05 12:18:00,46.2,14.9,29.12,NE,52,4.5,5.8,28,0.00,,BKN,0.00,VWS V13.01,2013-03-05 17:18:00,
2013-03-05 12:23:00,46.2,14.9,29.12,NE,48,4.5,4.5,28,0.00,,BKN,0.00,VWS V13.01,2013-03-05 17:23:00,
2013-03-05 12:28:00,46.2,14.9,29.12,NE,49,0.0,4.5,28,0.00,,BKN,0.00,VWS V13.01,2013-03-05 17:28:00,
2013-03-05 12:33:00,46.4,15.1,29.12,ENE,65,3.6,4.0,28,0.00,,BKN,0.00,VWS V13.01,2013-03-05 17:33:00,
2013-03-05 12:38:00,46.4,15.1,29.12,ENE,70,4.5,6.3,28,0.00,,BKN,0.00,VWS V13.01,2013-03-05 17:38:00,
2013-03-05 12:43:00,46.6,15.2,29.12,NNE,14,4.5,4.5,28,0.00,,BKN,0.00,VWS V13.01,2013-03-05 17:43:00,
2013-03-05 12:48:00,46.9,15.6,29.09,NE,39,3.1,5.8,28,0.00,,BKN,0.00,VWS V13.01,2013-03-05 17:48:00,
2013-03-05 12:53:00,46.8,15.4,29.09,ENE,74,4.0,5.8,28,0.00,,BKN,0.00,VWS V13.01,2013-03-05 17:53:00,
2013-03-05 12:58:00,46.8,15.4,29.09,ENE,60,4.9,5.4,28,0.00,,BKN,0.00,VWS V13.01,2013-03-05 17:58:00,
2013-03-05 13:03:00,46.8,15.4,29.09,North,6,4.5,5.8,28,0.00,,BKN,0.00,VWS V13.01,2013-03-05 18:03:00,
2013-03-05 13:08:00,46.9,15.6,29.09,North,351,6.3,6.9,28,0.00,,BKN,0.00,VWS V13.01,2013-03-05 18:08:00,
2013-03-05 13:13:00,47.1,15.7,29.09,ENE,68,4.0,5.8,28,0.00,,BKN,0.00,VWS V13.01,2013-03-05 18:13:00,
2013-03-05 13:18:00,47.3,15.9,29.09,ENE,75,4.0,6.7,28,0.00,,BKN,0.00,VWS V13.01,2013-03-05 18:18:00,
2013-03-05 13:23:00,48.0,16.5,29.09,ESE,106,2.7,4.0,28,0.00,,BKN,0.00,VWS V13.01,2013-03-05 18:23:00,
2013-03-05 13:28:00,47.8,15.5,29.09,North,2,5.8,6.7,27,0.00,,BKN,0.00,VWS V13.01,2013-03-05 18:28:00,
2013-03-05 13:33:00,47.8,15.5,29.09,SSW,193,3.6,4.9,27,0.00,,BKN,0.00,VWS V13.01,2013-03-05 18:33:00,
2013-03-05 13:38:00,48.2,15.8,29.09,NE,48,7.8,9.2,27,0.00,,BKN,0.00,VWS V13.01,2013-03-05 18:38:00,
2013-03-05 13:43:00,48.0,15.6,29.09,East,90,2.7,5.8,27,0.00,,BKN,0.00,VWS V13.01,2013-03-05 18:43:00,
2013-03-05 13:48:00,48.2,15.8,29.06,NE,53,8.3,8.3,27,0.00,,BKN,0.00,VWS V13.01,2013-03-05 18:48:00,
2013-03-05 13:53:00,48.2,15.8,29.06,NE,50,4.5,4.5,27,0.00,,BKN,0.00,VWS V13.01,2013-03-05 18:53:00,
2013-03-05 13:58:00,48.2,15.8,29.06,ENE,71,4.5,6.7,27,0.00,,BKN,0.00,VWS V13.01,2013-03-05 18:58:00,
2013-03-05 14:03:00,48.4,16.0,29.06,North,356,4.9,6.9,27,0.00,,BKN,0.00,VWS V13.01,2013-03-05 19:03:00,
2013-03-05 14:08:00,48.4,16.0,29.06,ENE,66,4.9,5.8,27,0.00,,BKN,0.00,VWS V13.01,2013-03-05 19:08:00,
2013-03-05 14:13:00,48.6,16.1,29.06,East,101,4.5,4.5,27,0.00,,BKN,0.00,VWS V13.01,2013-03-05 19:13:00,
2013-03-05 14:18:00,48.7,16.3,29.06,ENE,60,6.7,10.5,27,0.00,,BKN,0.00,VWS V13.01,2013-03-05 19:18:00,
2013-03-05 14:23:00,48.9,16.4,29.06,ESE,117,4.5,6.9,27,0.00,,BKN,0.00,VWS V13.01,2013-03-05 19:23:00,
2013-03-05 14:28:00,48.9,16.4,29.06,ESE,106,6.7,8.7,27,0.00,,BKN,0.00,VWS V13.01,2013-03-05 19:28:00,
2013-03-05 14:33:00,49.5,16.9,29.03,East,84,6.7,6.7,27,0.00,,BKN,0.00,VWS V13.01,2013-03-05 19:33:00,
2013-03-05 14:38:00,49.5,16.9,29.03,NE,49,4.0,5.4,27,0.00,,BKN,0.00,VWS V13.01,2013-03-05 19:38:00,
2013-03-05 14:43:00,49.5,16.9,29.03,NNE,32,7.8,7.8,27,0.00,,BKN,0.00,VWS V13.01,2013-03-05 19:43:00,
2013-03-05 14:48:00,49.5,16.9,29.03,NNE,20,6.7,7.8,27,0.00,,BKN,0.00,VWS V13.01,2013-03-05 19:48:00,
2013-03-05 14:53:00,49.6,17.0,29.03,NNE,23,9.2,10.1,27,0.00,,BKN,0.00,VWS V13.01,2013-03-05 19:53:00,
2013-03-05 14:58:00,49.6,17.0,29.03,ESE,105,4.9,6.7,27,0.00,,BKN,0.00,VWS V13.01,2013-03-05 19:58:00,
2013-03-05 15:03:00,49.5,16.9,29.03,NE,37,7.8,8.7,27,0.00,,BKN,0.00,VWS V13.01,2013-03-05 20:03:00,
2013-03-05 15:08:00,49.5,16.9,29.03,NE,51,3.6,5.8,27,0.00,,BKN,0.00,VWS V13.01,2013-03-05 20:08:00,
2013-03-05 15:13:00,49.8,17.2,29.03,NNE,24,6.9,6.9,27,0.00,,BKN,0.00,VWS V13.01,2013-03-05 20:13:00,
2013-03-05 15:18:00,49.8,17.2,29.03,NNE,31,7.8,7.8,27,0.00,,BKN,0.00,VWS V13.01,2013-03-05 20:18:00,
2013-03-05 15:23:00,49.5,16.9,29.03,ENE,58,7.4,8.7,27,0.00,,BKN,0.00,VWS V13.01,2013-03-05 20:23:00,
2013-03-05 15:28:00,49.3,16.7,29.03,NE,54,6.9,9.2,27,0.00,,BKN,0.00,VWS V13.01,2013-03-05 20:28:00,
2013-03-05 15:33:00,49.1,17.4,29.03,East,99,4.9,5.4,28,0.00,,BKN,0.00,VWS V13.01,2013-03-05 20:33:00,
2013-03-05 15:38:00,49.3,16.7,29.03,NNE,25,5.8,5.8,27,0.00,,BKN,0.00,VWS V13.01,2013-03-05 20:38:00,
2013-03-05 15:43:00,49.3,16.7,29.03,NNE,12,8.3,11.6,27,0.00,,BKN,0.00,VWS V13.01,2013-03-05 20:43:00,
2013-03-05 15:48:00,49.3,16.7,29.03,ENE,76,4.5,5.4,27,0.00,,BKN,0.00,VWS V13.01,2013-03-05 20:48:00,
2013-03-05 15:53:00,49.1,16.6,29.03,NNE,21,7.8,9.6,27,0.00,,BKN,0.00,VWS V13.01,2013-03-05 20:53:00,
2013-03-05 15:58:00,49.1,16.6,29.03,NE,42,4.9,5.8,27,0.00,,BKN,0.00,VWS V13.01,2013-03-05 20:58:00,
2013-03-05 16:03:00,49.3,16.7,29.03,NNE,28,7.4,9.2,27,0.00,,BKN,0.00,VWS V13.01,2013-03-05 21:03:00,
2013-03-05 16:08:00,49.3,16.7,29.03,NNE,24,9.2,10.5,27,0.00,,BKN,0.00,VWS V13.01,2013-03-05 21:08:00,
2013-03-05 16:13:00,49.1,17.4,29.03,NE,35,4.9,6.7,28,0.00,,BKN,0.00,VWS V13.01,2013-03-05 21:13:00,
2013-03-05 16:18:00,48.7,17.1,29.03,NNE,29,5.8,7.4,28,0.00,,BKN,0.00,VWS V13.01,2013-03-05 21:18:00,
2013-03-05 16:23:00,48.4,16.8,29.03,ENE,67,9.6,9.6,28,0.00,,BKN,0.00,VWS V13.01,2013-03-05 21:23:00,
2013-03-05 16:28:00,48.2,16.6,29.03,North,11,8.3,10.1,28,0.00,,BKN,0.00,VWS V13.01,2013-03-05 21:28:00,
2013-03-05 16:33:00,47.8,16.3,29.00,NE,34,5.8,6.3,28,0.00,,BKN,0.00,VWS V13.01,2013-03-05 21:33:00,
2013-03-05 16:38:00,47.5,16.0,29.00,ENE,66,5.8,6.9,28,0.00,,BKN,0.00,VWS V13.01,2013-03-05 21:38:00,
2013-03-05 16:43:00,47.3,15.9,29.00,NE,56,6.3,6.7,28,0.00,,BKN,0.00,VWS V13.01,2013-03-05 21:43:00,
2013-03-05 16:48:00,47.3,15.9,29.00,NE,37,5.8,6.7,28,0.00,,BKN,0.00,VWS V13.01,2013-03-05 21:48:00,
2013-03-05 16:53:00,47.3,15.9,29.00,NE,56,4.9,4.9,28,0.00,,BKN,0.00,VWS V13.01,2013-03-05 21:53:00,
2013-03-05 16:58:00,47.3,15.9,29.00,East,82,4.9,6.9,28,0.00,,BKN,0.00,VWS V13.01,2013-03-05 21:58:00,
2013-03-05 17:03:00,47.3,15.9,29.00,ESE,107,4.5,4.5,28,0.00,,BKN,0.00,VWS V13.01,2013-03-05 22:03:00,
2013-03-05 17:08:00,47.1,15.7,29.00,SE,124,8.7,8.7,28,0.00,,BKN,0.00,VWS V13.01,2013-03-05 22:08:00,
2013-03-05 17:13:00,46.9,15.6,29.00,ESE,121,5.8,6.7,28,0.00,,BKN,0.00,VWS V13.01,2013-03-05 22:13:00,
2013-03-05 17:18:00,46.9,15.6,29.00,East,99,4.9,5.8,28,0.00,,BKN,0.00,VWS V13.01,2013-03-05 22:18:00,
2013-03-05 17:23:00,46.8,15.4,29.00,SE,126,5.8,5.8,28,0.00,,BKN,0.00,VWS V13.01,2013-03-05 22:23:00,
2013-03-05 17:28:00,46.6,15.2,29.00,ESE,121,6.7,7.8,28,0.00,,BKN,0.00,VWS V13.01,2013-03-05 22:28:00,
2013-03-05 17:33:00,46.6,15.2,29.00,ESE,105,7.4,7.4,28,0.00,,BKN,0.00,VWS V13.01,2013-03-05 22:33:00,
2013-03-05 17:38:00,46.6,15.2,29.00,ESE,114,6.9,8.3,28,0.00,,BKN,0.00,VWS V13.01,2013-03-05 22:38:00,
2013-03-05 17:43:00,46.4,15.1,29.00,ESE,109,8.3,8.3,28,0.00,,BKN,0.00,VWS V13.01,2013-03-05 22:43:00,
2013-03-05 17:48:00,46.4,15.1,29.00,East,97,5.8,6.9,28,0.00,,BKN,0.00,VWS V13.01,2013-03-05 22:48:00,
2013-03-05 17:53:00,46.2,14.9,29.00,East,94,4.9,6.3,28,0.00,,BKN,0.00,VWS V13.01,2013-03-05 22:53:00,
2013-03-05 17:58:00,46.2,14.9,29.00,East,97,4.0,4.0,28,0.00,,BKN,0.00,VWS V13.01,2013-03-05 22:58:00,
2013-03-05 18:03:00,46.0,14.8,29.00,ESE,117,4.0,4.0,28,0.00,,BKN,0.00,VWS V13.01,2013-03-05 23:03:00,
2013-03-05 18:08:00,45.9,14.6,29.00,ENE,68,5.8,5.8,28,0.00,,BKN,0.00,VWS V13.01,2013-03-05 23:08:00,
2013-03-05 18:13:00,45.9,14.6,29.00,ENE,66,4.9,6.9,28,0.00,,BKN,0.00,VWS V13.01,2013-03-05 23:13:00,
2013-03-05 18:18:00,45.7,14.5,29.00,East,89,5.4,7.4,28,0.00,,BKN,0.00,VWS V13.01,2013-03-05 23:18:00,
2013-03-05 18:23:00,45.7,14.5,29.00,East,97,5.8,9.6,28,0.00,,BKN,0.00,VWS V13.01,2013-03-05 23:23:00,
2013-03-05 18:28:00,45.7,14.5,29.00,ESE,123,4.0,5.8,28,0.00,,BKN,0.00,VWS V13.01,2013-03-05 23:28:00,
2013-03-05 18:33:00,45.7,14.5,29.00,ESE,108,4.0,5.4,28,0.00,,BKN,0.00,VWS V13.01,2013-03-05 23:33:00,
2013-03-05 18:38:00,45.5,14.3,29.00,NE,45,4.9,5.8,28,0.00,,BKN,0.00,VWS V13.01,2013-03-05 23:38:00,
2013-03-05 18:43:00,45.5,14.3,29.00,NE,56,5.8,5.8,28,0.00,,BKN,0.00,VWS V13.01,2013-03-05 23:43:00,
2013-03-05 18:48:00,45.5,14.3,29.00,East,87,4.9,8.3,28,0.00,,BKN,0.00,VWS V13.01,2013-03-05 23:48:00,
2013-03-05 18:53:00,45.5,15.1,29.00,East,97,10.1,10.5,29,0.00,,BKN,0.00,VWS V13.01,2013-03-05 23:53:00,
2013-03-05 18:58:00,45.5,14.3,29.00,ESE,122,5.4,5.4,28,0.00,,BKN,0.00,VWS V13.01,2013-03-05 23:58:00,
2013-03-05 19:03:00,45.5,14.3,29.00,ESE,121,5.4,6.3,28,0.00,,BKN,0.00,VWS V13.01,2013-03-06 00:03:00,
2013-03-05 19:08:00,45.3,14.9,29.00,ESE,111,7.8,7.8,29,0.00,,BKN,0.00,VWS V13.01,2013-03-06 00:08:00,
2013-03-05 19:13:00,45.3,14.9,29.00,ESE,111,4.9,7.4,29,0.00,,BKN,0.00,VWS V13.01,2013-03-06 00:13:00,
2013-03-05 19:18:00,45.3,14.9,29.00,East,88,8.3,8.7,29,0.00,,BKN,0.00,VWS V13.01,2013-03-06 00:18:00,
2013-03-05 19:23:00,45.1,14.8,29.00,ESE,119,6.7,6.7,29,0.00,,BKN,0.00,VWS V13.01,2013-03-06 00:23:00,
2013-03-05 19:28:00,45.0,14.6,29.00,East,80,6.9,8.7,29,0.00,,BKN,0.00,VWS V13.01,2013-03-06 00:28:00,
2013-03-05 19:33:00,44.8,14.5,29.00,East,90,6.7,6.7,29,0.00,,BKN,0.00,VWS V13.01,2013-03-06 00:33:00,
2013-03-05 19:38:00,44.6,14.3,29.00,East,97,11.0,11.0,29,0.00,,BKN,0.00,VWS V13.01,2013-03-06 00:38:00,
2013-03-05 19:43:00,44.4,14.2,29.00,ESE,117,9.2,9.2,29,0.00,,BKN,0.00,VWS V13.01,2013-03-06 00:43:00,
2013-03-05 19:48:00,44.2,14.0,29.00,ESE,104,6.9,9.2,29,0.00,,BKN,0.00,VWS V13.01,2013-03-06 00:48:00,
2013-03-05 19:53:00,44.2,14.0,29.00,ESE,112,5.8,5.8,29,0.00,,BKN,0.00,VWS V13.01,2013-03-06 00:53:00,
2013-03-05 19:58:00,44.1,13.9,29.00,ESE,121,6.3,6.3,29,0.00,,BKN,0.00,VWS V13.01,2013-03-06 00:58:00,
2013-03-05 20:03:00,43.9,13.7,28.97,East,92,4.9,4.9,29,0.00,,BKN,0.00,VWS V13.01,2013-03-06 01:03:00,
2013-03-05 20:08:00,43.7,13.5,28.97,East,94,12.1,12.1,29,0.00,,BKN,0.00,VWS V13.01,2013-03-06 01:08:00,
2013-03-05 20:13:00,43.7,13.5,28.97,ESE,113,6.3,6.3,29,0.00,,BKN,0.00,VWS V13.01,2013-03-06 01:13:00,
2013-03-05 20:18:00,43.7,13.5,28.97,ESE,122,9.6,9.6,29,0.00,,BKN,0.00,VWS V13.01,2013-03-06 01:18:00,
2013-03-05 20:23:00,43.5,14.2,28.97,SE,127,9.2,9.2,30,0.00,,BKN,0.00,VWS V13.01,2013-03-06 01:23:00,
2013-03-05 20:28:00,43.3,14.0,28.97,SE,125,9.6,9.6,30,0.00,,BKN,0.00,VWS V13.01,2013-03-06 01:28:00,
2013-03-05 20:33:00,43.2,14.6,28.97,SSE,153,7.4,9.6,31,0.00,,BKN,0.00,VWS V13.01,2013-03-06 01:33:00,
2013-03-05 20:38:00,42.8,15.7,28.97,SSE,155,7.8,15.2,33,0.00,,BKN,0.00,VWS V13.01,2013-03-06 01:38:00,
2013-03-05 20:43:00,42.6,16.9,28.97,SSE,155,5.4,7.8,35,0.00,,BKN,0.00,VWS V13.01,2013-03-06 01:43:00,
2013-03-05 20:47:00,42.3,17.2,28.94,SE,141,6.9,10.1,36,0.00,,BKN,0.00,VWS V13.01,2013-03-06 01:47:00,
2013-03-05 20:52:00,42.1,17.7,28.94,SSE,150,12.1,15.9,37,0.00,,BKN,0.00,VWS V13.01,2013-03-06 01:52:00,
2013-03-05 20:57:00,42.1,17.7,28.94,SE,145,8.3,13.4,37,0.00,,BKN,0.00,VWS V13.01,2013-03-06 01:57:00,
2013-03-05 21:02:00,41.9,17.5,28.94,ESE,114,7.8,13.4,37,0.00,,BKN,0.00,VWS V13.01,2013-03-06 02:02:00,
2013-03-05 21:07:00,41.5,17.8,28.94,SSE,167,5.8,12.1,38,0.00,,BKN,0.00,VWS V13.01,2013-03-06 02:07:00,
2013-03-05 21:12:00,41.5,17.8,28.94,ESE,108,5.8,8.7,38,0.00,,BKN,0.00,VWS V13.01,2013-03-06 02:12:00,
2013-03-05 21:17:00,41.4,17.7,28.94,ESE,112,11.0,11.0,38,0.00,,BKN,0.00,VWS V13.01,2013-03-06 02:17:00,
2013-03-05 21:22:00,41.2,17.5,28.94,ESE,113,9.6,12.5,38,0.00,,BKN,0.00,VWS V13.01,2013-03-06 02:22:00,
2013-03-05 21:27:00,41.0,17.4,28.94,ESE,119,6.7,11.0,38,0.00,,BKN,0.00,VWS V13.01,2013-03-06 02:27:00,
2013-03-05 21:32:00,40.5,17.5,28.97,ESE,116,7.4,9.6,39,0.00,,BKN,0.00,VWS V13.01,2013-03-06 02:32:00,
2013-03-05 21:37:00,40.1,17.7,28.97,ESE,104,11.2,15.2,40,0.00,,BKN,0.00,VWS V13.01,2013-03-06 02:37:00,
2013-03-05 21:42:00,39.4,17.7,28.97,East,88,6.9,12.5,41,0.00,,BKN,0.00,VWS V13.01,2013-03-06 02:42:00,
2013-03-05 21:47:00,38.7,19.2,28.97,East,93,6.9,6.9,45,0.00,,BKN,0.00,VWS V13.01,2013-03-06 02:47:00,
2013-03-05 21:52:00,37.4,21.4,28.97,ESE,105,8.3,11.2,52,0.00,,BKN,0.00,VWS V13.01,2013-03-06 02:52:00,
2013-03-05 21:57:00,36.5,22.7,28.97,NE,55,6.3,11.2,57,0.00,,BKN,0.00,VWS V13.01,2013-03-06 02:57:00,
2013-03-05 22:02:00,36.0,23.4,28.97,SE,128,6.7,8.7,60,0.00,,BKN,0.00,VWS V13.01,2013-03-06 03:02:00,
2013-03-05 22:07:00,35.6,24.6,28.97,East,91,9.2,10.5,64,0.00,,BKN,0.00,VWS V13.01,2013-03-06 03:07:00,
2013-03-05 22:12:00,35.2,25.0,28.97,ESE,109,9.6,11.0,66,0.00,,BKN,0.00,VWS V13.01,2013-03-06 03:12:00,
2013-03-05 22:17:00,34.5,25.8,28.97,ESE,110,4.0,6.3,70,0.00,,BKN,0.00,VWS V13.01,2013-03-06 03:17:00,
2013-03-05 22:22:00,34.0,25.9,28.97,East,99,4.5,4.5,72,0.00,,BKN,0.00,VWS V13.01,2013-03-06 03:22:00,
2013-03-05 22:27:00,33.6,25.9,28.97,ESE,112,2.7,4.0,73,0.00,,BKN,0.00,VWS V13.01,2013-03-06 03:27:00,
2013-03-05 22:32:00,33.3,25.9,28.94,East,97,3.1,4.0,74,0.00,,BKN,0.00,VWS V13.01,2013-03-06 03:32:00,
2013-03-05 22:37:00,33.1,25.7,28.94,ENE,61,4.0,4.5,74,0.00,,BKN,0.00,VWS V13.01,2013-03-06 03:37:00,
2013-03-05 22:42:00,33.1,26.0,28.94,East,101,2.7,3.1,75,0.00,,BKN,0.00,VWS V13.01,2013-03-06 03:42:00,
2013-03-05 22:47:00,32.7,25.7,28.94,ENE,74,4.0,4.9,75,0.00,,BKN,0.00,VWS V13.01,2013-03-06 03:47:00,
2013-03-05 22:52:00,32.7,25.7,28.94,ENE,63,3.6,4.0,75,0.00,,BKN,0.00,VWS V13.01,2013-03-06 03:52:00,
2013-03-05 22:57:00,32.5,25.2,28.94,NE,47,3.6,3.6,74,0.00,,BKN,0.00,VWS V13.01,2013-03-06 03:57:00,
2013-03-05 23:02:00,32.5,25.2,28.94,ENE,67,3.6,4.0,74,0.00,,BKN,0.00,VWS V13.01,2013-03-06 04:02:00,
2013-03-05 23:07:00,32.5,25.2,28.94,ENE,76,3.1,3.1,74,0.00,,BKN,0.00,VWS V13.01,2013-03-06 04:07:00,
2013-03-05 23:12:00,32.4,25.0,28.94,ENE,67,3.1,3.6,74,0.00,,BKN,0.00,VWS V13.01,2013-03-06 04:12:00,
2013-03-05 23:17:00,32.4,25.0,28.94,ENE,57,4.0,4.0,74,0.00,,BKN,0.00,VWS V13.01,2013-03-06 04:17:00,
2013-03-05 23:22:00,32.4,24.7,28.94,ENE,67,2.7,4.0,73,0.00,,BKN,0.00,VWS V13.01,2013-03-06 04:22:00,
2013-03-05 23:27:00,32.4,25.0,28.94,ENE,66,3.1,3.6,74,0.00,,BKN,0.00,VWS V13.01,2013-03-06 04:27:00,
2013-03-05 23:32:00,32.2,24.8,28.91,NE,54,3.1,4.0,74,0.00,,BKN,0.00,VWS V13.01,2013-03-06 04:32:00,
2013-03-05 23:37:00,32.2,24.8,28.91,NE,53,4.0,4.9,74,0.00,,BKN,0.00,VWS V13.01,2013-03-06 04:37:00,
2013-03-05 23:42:00,32.2,24.8,28.91,NE,55,3.1,4.0,74,0.00,,BKN,0.00,VWS V13.01,2013-03-06 04:42:00,
2013-03-05 23:47:00,32.2,24.8,28.91,NNE,29,5.4,5.8,74,0.00,,BKN,0.00,VWS V13.01,2013-03-06 04:47:00,
2013-03-05 23:52:00,32.2,24.8,28.91,East,79,3.1,4.0,74,0.00,,BKN,0.00,VWS V13.01,2013-03-06 04:52:00,
2013-03-05 23:57:00,32.2,24.8,28.91,NNE,20,4.9,6.9,74,0.00,,BKN,0.00,VWS V13.01,2013-03-06 04:57:00,